Regional Weather Roundup
Issued by NWS Northern Indiana

Home | Current Version | Previous Version | Text Only | Print | Product List | Glossary Off
Versions: 1 2 3 4 5 6 7 8 9 10 11 12 13 14 15 16 17 18 19 20 21 22 23 24 25 26 27 28 29 30 31 32 33 34 35 36 37 38 39 40 41 42 43 44 45 46 47 48 49 50

000
ASUS43 KIWX 300110
RWRIWX

KIWX WEATHER ROUNDUP
NATIONAL WEATHER SERVICE NORTHERN INDIANA
900 PM EDT SUN MAY 29 2016

NOTE: "FAIR" INDICATES FEW OR NO CLOUDS BELOW 12,000 FEET WITH NO
SIGNIFICANT WEATHER AND/OR OBSTRUCTIONS TO VISIBILITY.

* THESE STATIONS ARE NOT UNDER NWS QUALITY CONTROL. THEY ALSO MAY NOT
  REPORT WEATHER SUCH AS PRECIPITATION OR FOG.

INZ001>027-300200-
NORTHERN INDIANA

CITY           SKY/WX    TMP DP  RH WIND       PRES   REMARKS
GARY*          PTCLDY    79  63  57 W14       29.99S
VALPARAISO     CLEAR     75  56  51 W6        30.00S
MICHIGAN CITY* CLEAR     73  55  53 W3        29.99S
LAPORTE*       CLEAR     76  57  50 NW3       30.00S
KNOX*          CLEAR     77  43  29 NW7       29.99S
SOUTH BEND     CLEAR     72  57  59 W6        30.00R
GOSHEN         CLEAR     73  56  54 NW8       29.99R
MONTICELLO*    PTCLDY    78  47  32 W6        29.99R
LOGANSPORT*    CLEAR     77  54  44 W8        29.99S
ROCHESTER*     CLEAR     79  54  41 NW9       29.99R
WARSAW*        CLEAR     75  57  53 NW7       29.99R
ANGOLA*          N/A     77  70  78 NW10      29.99R
FORT WAYNE     PTCLDY    80  51  36 W9        29.98R
HUNTINGTON*    CLEAR    N/A N/A N/A W5        29.97S
PERU/GRISSOM   CLEAR     79  56  44 NW9       29.98S
MARION*        CLOUDY    80  50  35 W12       29.99S

$$
INZ028>050-300200-
CENTRAL INDIANA

CITY           SKY/WX    TMP DP  RH WIND       PRES   REMARKS
LAFAYETTE      CLEAR     75  54  47 W7        29.99S
KOKOMO*        CLEAR     79  52  38 W13       29.99R
MUNCIE*        CLOUDY    81  53  37 W7        29.98F
INDIANAPOLIS   PTCLDY    77  58  51 S6        29.99S

$$
MIZ043>046-050>051-056>058-064>065-071>073-077>080-300200-
SOUTHWEST LOWER MICHIGAN

CITY           SKY/WX    TMP DP  RH WIND       PRES   REMARKS
BATTLE CREEK   CLEAR     71  56  58 W6        29.99R
BENTON HARBOR  CLEAR     72  57  59 SW8       29.98R
COLDWATER*     CLEAR     74  52  47 NW9       29.99R
HILLSDALE*     CLEAR     75  51  43 NW10      29.99R
HOLLAND        CLEAR     71  58  63 SW9       29.97S
GRAND RAPIDS   PTCLDY    74  57  55 W10       29.96S
KALAMAZOO      CLEAR     73  55  53 W8        29.98S
STURGIS*       CLEAR     73  54  50 NW5       29.99R
THREE RIVERS*  FAIR      74  54  50 W7        29.99R

$$
OHZ001>008-015>018-024>025-300200-
NORTHWEST OHIO

CITY           SKY/WX    TMP DP  RH WIND       PRES   REMARKS
WAUSEON*         N/A     81  77  89 W12G17    29.95R
DEFIANCE       CLEAR     82  52  35 W6        29.95R
FINDLAY        CLOUDY    79  60  52 S9        29.96R
TOLEDO EXPRESS CLEAR     80  51  36 W7        29.95R
TOLEDO METCALF CLOUDY    80  58  46 W7        29.95R
LIMA           MOCLDY    79  61  53 SW8       29.98R

$$
AND FOR LAKE MICHIGAN COASTAL AND OPEN LAKE BUOY OBSERVATIONS

STATION/POSITION TEMP    WIND        PRES    VSBY  WAVE
                 AIR SEA DIR/SP/G                  HT/PER
                 (F)     (DEG/KT/KT) (MB)    (MI)  (FT/S)
CALUMET HARBOR    79                 1014.8R
MICHIGAN CITY     70     220/  7/  7   N/A
BURNS HARBOR      69     270/  6/  8 1015.9S
SAINT JOSEPH      69     180/  7/ 12 1015.6F
SOUTH LAKE BUOY   57 51  200/  8/ 10 1013.9          1
4 MI NW BRIDGMAN  65 62  230/  6/  8   N/A           1/ 3
MICHIGAN CITY     64 59  260/  4/  6   N/A           1

$$
&&




USA.gov is the U.S. government's official web portal to all federal, state and local government web resources and services.